Weather History for Kalispell, MT

Change the Weather History Date:

Tuesday, September 24, 2013

  Actual Average Record
Temperature  
Mean Temperature 45 °F 51 °F  
Max Temperature 52 °F 66 °F 89 °F (2014)
Min Temperature 37 °F 36 °F 7 °F (1926)
Degree Days  
Heating Degree Days 20 14  
Month to date heating degree days 125 236  
Since 1 July heating degree days 166 406  
Cooling Degree Days 0 0  
Month to date cooling degree days 29 1  
Year to date cooling degree days 264 144  
Moisture  
Dew Point 43 °F    
Average Humidity 87    
Maximum Humidity 100    
Minimum Humidity 74    
Precipitation  
Precipitation 0.08 in 0.04 in 0.40 in (1941)
Month to date precipitation 2.14 1.15  
Year to date precipitation 12.76 12.76  
Snow  
Snow 0.00 in - - ()
Month to date snowfall 0.0  
Year to date snowfall 10.1  
Since 1 July snowfall 0.0  
Snow Depth 0.00 in    
Sea Level Pressure  
Sea Level Pressure 29.85 in    
Wind  
Wind Speed 3 mph (SE)    
Max Wind Speed 14 mph    
Max Gust Speed 20 mph    
Visibility 9 miles    
Events Rain    
T = Trace of Precipitation, MM = Missing Value Source: NWS Daily Summary

Daily Weather History Graph

Daily Weather History Graph

Search for Another Location

Airport:

Trip Planner

Search our weather history database for the weather conditions in past years. The results will help you decide how hot, cold, wet, or windy it might be!

Date:

Astronomy

Sep. 24, 2013 Rise Set
Actual Time 7:26 AM MDT 7:29 PM MDT
Civil Twilight 6:55 AM MDT 8:01 PM MDT
Nautical Twilight 6:19 AM MDT 8:37 PM MDT
Astronomical Twilight 5:41 AM MDT 9:15 PM MDT
Moon 10:26 PM MDT (9/24) 1:09 PM MDT (9/24)
Length of Visible Light 13h 05m
Length of Day
12h 03m
Waning Gibbous, 72% of the Moon is Illuminated
Sep 24
Waning Gibbous
Sep 26
Last Quarter
Oct 4
New
Oct 11
First Quarter
Oct 18
Full

Hourly Weather History & Observations

Time (MDT) Temp. Windchill Dew Point Humidity Pressure Visibility Wind Dir Wind Speed Gust Speed Precip Events Conditions
12:55 AM 44.1 °F 42.5 °F 42.1 °F 93% 29.96 in 10.0 mi West 3.5 mph - N/A   Mostly Cloudy
1:55 AM 41.0 °F 38.0 °F 39.9 °F 96% 29.94 in 10.0 mi WNW 4.6 mph - 0.00 in   Scattered Clouds
2:55 AM 39.9 °F - 39.0 °F 97% 29.94 in 10.0 mi Calm Calm - N/A   Scattered Clouds
3:55 AM 39.9 °F - 39.0 °F 97% 29.94 in 10.0 mi Calm Calm - N/A   Mostly Cloudy
4:55 AM 39.0 °F - 37.9 °F 96% 29.93 in 10.0 mi Calm Calm - N/A   Clear
5:23 AM 37.4 °F - 37.4 °F 100% 29.90 in 1.8 mi Calm Calm - N/A   Scattered Clouds
5:38 AM 37.4 °F - 37.4 °F 100% 29.90 in 2.0 mi Calm Calm - N/A   Mostly Cloudy
5:51 AM 39.2 °F - 37.4 °F 93% 29.89 in 10.0 mi Calm Calm - N/A   Overcast
5:55 AM 39.0 °F - 37.9 °F 96% 29.91 in 10.0 mi Calm Calm - N/A   Overcast
6:55 AM 39.9 °F - 37.9 °F 93% 29.90 in 10.0 mi Calm Calm - N/A   Overcast
7:55 AM 41.0 °F - 39.9 °F 96% 29.90 in 10.0 mi Calm Calm - N/A   Mostly Cloudy
8:55 AM 44.1 °F - 42.1 °F 93% 29.90 in 10.0 mi Calm Calm - 0.00 in   Overcast
9:55 AM 46.0 °F - 43.0 °F 89% 29.88 in 10.0 mi Calm Calm - 0.01 in Rain Light Rain
10:55 AM 46.9 °F - 44.1 °F 90% 29.87 in 10.0 mi Calm Calm - 0.00 in   Overcast
11:55 AM 48.0 °F - 46.0 °F 93% 29.87 in 10.0 mi Calm Calm - 0.02 in Rain Light Rain
12:55 PM 51.1 °F - 48.0 °F 89% 29.84 in 10.0 mi Calm Calm - 0.00 in   Overcast
1:55 PM 51.1 °F - 46.9 °F 86% 29.82 in 10.0 mi SSE 9.2 mph - 0.00 in   Overcast
2:55 PM 51.1 °F - 46.9 °F 86% 29.81 in 9.0 mi Calm Calm - 0.01 in Rain Light Rain
3:22 PM 51.8 °F - 46.4 °F 82% 29.78 in 7.0 mi South 9.2 mph - 0.01 in Rain Light Rain
3:55 PM 51.1 °F - 46.0 °F 83% 29.80 in 10.0 mi SSE 9.2 mph - 0.03 in Rain Light Rain
4:06 PM 51.8 °F - 46.4 °F 82% 29.77 in 10.0 mi SSE 8.1 mph - 0.00 in Rain Light Rain
4:22 PM 51.8 °F - 46.4 °F 82% 29.77 in 10.0 mi SSE 11.5 mph - 0.00 in   Overcast
4:55 PM 51.1 °F - 46.0 °F 83% 29.80 in 10.0 mi SSE 11.5 mph - 0.00 in   Scattered Clouds
5:55 PM 51.1 °F - 45.0 °F 80% 29.79 in 10.0 mi SSE 12.7 mph - N/A   Overcast
6:55 PM 50.0 °F - 44.1 °F 80% 29.79 in 10.0 mi SSE 8.1 mph - N/A   Overcast
7:55 PM 50.0 °F - 43.0 °F 77% 29.78 in 10.0 mi SSE 4.6 mph - N/A   Overcast
8:41 PM 48.2 °F - 42.8 °F 82% 29.78 in 10.0 mi North 4.6 mph - N/A   Overcast
8:55 PM 48.0 °F - 42.1 °F 80% 29.81 in 10.0 mi North 6.9 mph - N/A   Overcast
9:10 PM 46.4 °F 43.5 °F 42.8 °F 87% 29.78 in 10.0 mi NE 5.8 mph - N/A   Overcast
9:55 PM 46.0 °F 43.9 °F 43.0 °F 89% 29.81 in 8.0 mi NE 4.6 mph - 0.00 in Rain Light Rain
10:02 PM 46.4 °F - 44.6 °F 93% 29.79 in 7.0 mi Calm Calm - 0.01 in Rain Light Rain
10:55 PM 46.0 °F - 44.1 °F 93% 29.81 in 10.0 mi Calm Calm - 0.01 in   Overcast
11:55 PM 44.1 °F - 43.0 °F 96% 29.80 in 10.0 mi Calm Calm - N/A   Mostly Cloudy